Other Surface Observations
Issued by NWS

Home | Current Version | Previous Version | Text Only | Print | Product List | Glossary On
Versions: 1 2 3 4 5 6 7 8 9 10 11 12 13 14 15 16 17 18 19 20 21 22 23 24 25 26 27 28 29 30 31 32 33 34 35 36 37 38 39 40 41 42 43 44 45 46 47 48 49 50
000
SXUS52 KTAE 011918
OSOTAE
OSOTAE
North Florida/South Alabama/Southwest Georgia Weather Roundup
National Weather Service Tallahassee Florida
200 PM EST SUN FEB 01 2015

Note: "fair" indicates few or no clouds below 12,000 feet with no
significant weather and/or obstructions to visibility.

!FLZ017-115-028-034-025-012000
...North Florida...

CITY           SKY/WX    TMP DP  RH WIND       PRES   REMARKS
TALLAHASSEE    PTSUNNY   69  49  48 S21G31    30.09F
APALACHICOLA   PTSUNNY   69  58  67 SE14      30.07F
PERRY          PTSUNNY   72  47  40 S15G24    30.11F
CROSS CITY       N/A     74  47  38 S15G22    30.10F
JACKSONVILLE   MOSUNNY   72  48  42 S18       30.12F
$$

!FLZ112-006-005-002-011-012000
...Florida Panhandle...

CITY           SKY/WX    TMP DP  RH WIND       PRES   REMARKS
MARIANNA       CLOUDY    69  54  58 S13       30.03F
BONIFAY        CLOUDY    68  57  68 SE10G20   30.02F
PANAMA CITY NW CLOUDY    66  58  75 SE14G25   30.02F
TYNDALL AFB    MOSUNNY   66  58  75 SE20G28   30.03F
TYND DRONE APT MOCLDY    68  59  73 SE20G29   30.01F
DE FUNIAK SPR  LGT RAIN  64  59  84 SE17G24   30.01F
EGLIN AFB      HVY RAIN  63  61  94 SE12      29.99F FOG
DESTIN         RAIN      63  62  97 S9G20     29.99F FOG
HURLBURT       RAIN      64  61  88 S17       29.97F FOG
CRESTVIEW      HVY RAIN  63  63 100 SE6       30.00F VSB 1
PENSACOLA      LGT RAIN  64  63  96 S17       29.97F FOG
$$

!ALZ063-066-012000
...South Alabama...

CITY           SKY/WX    TMP DP  RH WIND       PRES   REMARKS
DOTHAN         CLOUDY    65  54  67 S12       30.06F
OZARK CAIRNS   LGT RAIN  64  57  77 SE9       29.99F
FT RUCKER HELI LGT RAIN  65  56  72 S9        29.99F
RUCKER HELI 3  LGT RAIN  64  57  78 SE15G24   30.00F
RUCKER HELI 2  CLOUDY    64  56  75 SE9       29.99F
FLORALA APT    RAIN      63  61  94 S8        30.00F FOG
ANDALUSIA      LGT RAIN  67  59  75 S6        29.97F
TROY           LGT RAIN  59  53  80 SE8       30.00F
EUFALA         CLOUDY    64  51  62 SE5       30.02F
MOBILE         CLOUDY    63  63 100 S8        29.96F
$$

!GAZ120>161-012000
...Southwest and South Central Georgia...

CITY           SKY/WX    TMP DP  RH WIND       PRES   REMARKS
THOMASVILLE    PTSUNNY   72  48  43 SW20      30.08F
BAINBRIDGE     MOSUNNY   72  55  56 S15       30.06F
MOODY AFB      MOSUNNY   73  46  38 S12       30.08F
VALDOSTA       MOSUNNY   73  47  39 S9G18     30.09F
MOULTRIE       MOSUNNY   70  50  49 S8G17     30.08F
BLAKELY        CLOUDY    72  54  53 S10G18    30.05F
ALBANY         PTSUNNY   70  48  45 SW14      30.08F
TIFTON         PTSUNNY   68  45  42 S12G22    30.08F
FITZGERALD     MOCLDY    70  45  39 S15       30.10F
CORDELE        MOCLDY    71  47  42 S15       30.08F
AMERICUS       CLOUDY    66  48  52 S10G16    30.08F
HOMERVILLE     FAIR      73  50  43 S14       30.10F
$$

!GMZ750-755-770-775-012000
...Coastal and Buoy Obs...

STATION/POSITION TIME  TEMP    WIND        PRES    VSBY  WAVE
                       AIR SEA DIR/SP/G                  HT/PER
                 (UTC) (F)     (DEG/KT/KT) (MB)    (MI)  (FT/S)
KEATON BEACH     1900   63     160/ 16/ 19 1019.6F
CEDAR KEY        1900   62     180/  9/ 10 1019.9F
C TOWER          1900   64     150/ 20/ 22 1017.7F
APALACHICOLA BUO 1900   68 67  160/ 21/ 25 1017.9F         6/ 6
PANAMA CITY BUOY 1824   69 69  170/ 21/ 29 1016.4F         7/ 7
MOBILE BUOY      1829   69 69  170/ 17/ 21 1015.1F         6/ 6
ORANGE BCH AL BU 1900   65 62  180/ 12/ 14 1014.1F         6/ 7
$$



USA.gov is the U.S. government's official web portal to all federal, state and local government web resources and services.